Simultaneous Nadir Overpasses (SNOs) Predictions

Prediction of SNOs between AQUA and NOAA-19 Satellite Orbit:

Table of predicted SNOs for the next 14.0 days since TLE Epoch: 5/30/2012
Index Date (AQUA) Time (AQUA) AQUA Lat,Lon Date (NOAA-19) Time (NOAA-19) NOAA-19 Lat,Lon Distance(km) Time Diff (sec)
1 05/31/2012 06:18:08 -46.95, 118.21 05/31/2012 06:17:49 -46.95, 118.21 0.18 19
2 05/31/2012 07:04:37 57.25, -69.36 05/31/2012 07:05:43 57.25, -69.37 0.39 66
3 06/02/2012 11:01:34 -50.02, 48.36 06/02/2012 11:01:38 -50.02, 48.36 0.24 4
4 06/02/2012 11:39:03 80.94, -34.74 06/02/2012 11:40:16 80.27, -36.78 82.69 73
5 06/04/2012 14:57:29 46.05, 168.09 06/04/2012 14:56:20 46.01, 168.28 15.04 69
6 06/04/2012 15:44:56 -53.29, -21.24 06/04/2012 15:45:23 -53.29, -21.22 1.29 27
7 06/06/2012 19:41:47 46.00, 97.00 06/06/2012 19:41:03 45.98, 97.09 7.69 44
8 06/06/2012 20:28:35 -55.53, -91.19 06/06/2012 20:29:26 -55.54, -91.18 0.72 51
9 06/09/2012 00:25:59 46.30, 26.03 06/09/2012 00:25:40 46.31, 26.05 1.12 19
10 06/09/2012 01:11:22 -60.77,-159.10 06/09/2012 01:12:36 -60.72,-158.97 9.01 74
11 06/11/2012 05:09:23 49.44, -43.81 06/11/2012 05:09:28 49.44, -43.80 0.59 5
12 06/13/2012 09:05:14 -46.00, 76.12 06/13/2012 09:04:17 -45.98, 76.29 13.50 57




NCC Satellite Simultaneous Nadir Overpasses (SNOs) Prediction Service
